When you browse on this site, cookies collect data to enhance your experience and personalize the content and advertising you see.
Visit our Privacy Policy to learn more. By continuing to use the site, you agree to this use of cookies and data.
  • In Hungary
  • List of Countries
  • For 7 days
  • Water Temperature
  • Weather Map
  • News
  • Weather Widgets
  • user-avatar
    Login

    Hourly Weather Cap-Haitien

    Today, 13 November, Wednesday

    Time Temperature Precipitation Wind Pressure Humidity
    00:00 +26°C° 0.2 mm 2 mps 758 mmHg 91%
    01:00 +26°C° 0.2 mm 2 mps 758 mmHg 90%
    02:00 +26°C° 0.1 mm 2 mps 758 mmHg 90%
    03:00 +26°C° 0.1 mm 2 mps 758 mmHg 90%
    04:00 +25°C° 0.1 mm 2 mps 758 mmHg 90%
    05:00 +26°C° 0 mm 2 mps 758 mmHg 90%
    06:00 +26°C° 0 mm 2 mps 759 mmHg 89%
    07:00 +27°C° 0 mm 2 mps 759 mmHg 87%
    08:00 +29°C° 0 mm 1 mps 759 mmHg 79%
    09:00 +31°C° 0 mm 1 mps 760 mmHg 72%
    10:00 +33°C° 0 mm 1 mps 760 mmHg 64%
    11:00 +32°C° 0.3 mm 1 mps 759 mmHg 67%
    12:00 +32°C° 0.3 mm 2 mps 759 mmHg 69%
    13:00 +33°C° 0.3 mm 3 mps 758 mmHg 72%
    14:00 +31°C° 0.2 mm 3 mps 758 mmHg 74%
    15:00 +30°C° 0.2 mm 3 mps 758 mmHg 77%
    16:00 +30°C° 0.2 mm 2 mps 758 mmHg 80%
    17:00 +29°C° 0.6 mm 2 mps 758 mmHg 84%
    18:00 +28°C° 0.6 mm 2 mps 759 mmHg 88%
    19:00 +26°C° 0.6 mm 2 mps 759 mmHg 92%
    20:00 +26°C° 0.3 mm 1 mps 759 mmHg 92%
    21:00 +26°C° 0.3 mm 1 mps 760 mmHg 93%
    22:00 +26°C° 0.3 mm 1 mps 760 mmHg 93%
    23:00 +26°C° 0 mm 1 mps 760 mmHg 93%

    Tomorrow, 14 November, Thursday

    Time Temperature Precipitation Wind Pressure Humidity
    00:00 +26°C° 0 mm 1 mps 759 mmHg 93%
    01:00 +26°C° 0 mm 1 mps 759 mmHg 93%
    02:00 +25°C° 0 mm 1 mps 759 mmHg 93%
    03:00 +25°C° 0 mm 1 mps 759 mmHg 93%
    04:00 +25°C° 0 mm 2 mps 759 mmHg 93%
    05:00 +26°C° 0 mm 2 mps 759 mmHg 91%
    06:00 +26°C° 0 mm 2 mps 760 mmHg 90%
    07:00 +27°C° 0 mm 2 mps 760 mmHg 88%
    08:00 +28°C° 0 mm 2 mps 760 mmHg 81%
    09:00 +30°C° 0 mm 2 mps 761 mmHg 74%
    10:00 +31°C° 0 mm 3 mps 761 mmHg 67%
    11:00 +33°C° 0 mm 3 mps 760 mmHg 65%
    12:00 +33°C° 0 mm 3 mps 760 mmHg 62%
    13:00 +34°C° 0 mm 3 mps 759 mmHg 60%
    14:00 +33°C° 0 mm 3 mps 759 mmHg 65%
    15:00 +31°C° 0 mm 3 mps 759 mmHg 71%
    16:00 +30°C° 0 mm 3 mps 759 mmHg 76%
    17:00 +28°C° 0.1 mm 4 mps 759 mmHg 82%
    18:00 +27°C° 0.1 mm 4 mps 760 mmHg 89%
    19:00 +26°C° 0.1 mm 5 mps 760 mmHg 95%
    20:00 +26°C° 0.1 mm 4 mps 760 mmHg 95%
    21:00 +26°C° 0.1 mm 4 mps 760 mmHg 95%
    22:00 +26°C° 0.1 mm 4 mps 760 mmHg 95%
    23:00 +26°C° 0 mm 4 mps 760 mmHg 95%

    Day after tomorrow, 15 November, Friday

    Time Temperature Precipitation Wind Pressure Humidity
    00:00 +26°C° 0 mm 4 mps 760 mmHg 95%
    01:00 +25°C° 0 mm 3 mps 760 mmHg 95%
    02:00 +25°C° 0 mm 3 mps 760 mmHg 95%
    03:00 +25°C° 0 mm 3 mps 760 mmHg 95%
    04:00 +25°C° 0 mm 3 mps 759 mmHg 95%
    05:00 +25°C° 0 mm 3 mps 760 mmHg 94%
    06:00 +26°C° 0 mm 2 mps 760 mmHg 92%
    07:00 +26°C° 0 mm 2 mps 761 mmHg 91%
    08:00 +28°C° 0 mm 2 mps 761 mmHg 83%
    09:00 +29°C° 0 mm 3 mps 761 mmHg 76%
    10:00 +31°C° 0 mm 3 mps 760 mmHg 68%
    11:00 +31°C° 0 mm 3 mps 760 mmHg 65%
    12:00 +32°C° 0 mm 2 mps 759 mmHg 62%
    13:00 +34°C° 0 mm 2 mps 759 mmHg 59%
    14:00 +33°C° 0 mm 3 mps 758 mmHg 65%
    15:00 +31°C° 0 mm 3 mps 758 mmHg 71%
    16:00 +30°C° 0 mm 3 mps 758 mmHg 77%
    17:00 +28°C° 0.2 mm 3 mps 758 mmHg 83%
    18:00 +27°C° 0.2 mm 3 mps 759 mmHg 89%
    19:00 +26°C° 0.2 mm 3 mps 759 mmHg 95%
    20:00 +26°C° 0.3 mm 3 mps 759 mmHg 95%
    21:00 +26°C° 0.3 mm 3 mps 759 mmHg 95%
    22:00 +26°C° 0.3 mm 3 mps 759 mmHg 95%
    23:00 +26°C° 0 mm 3 mps 759 mmHg 96%

    16 November, Saturday

    Time Temperature Precipitation Wind Pressure Humidity
    00:00 +26°C° 0 mm 3 mps 759 mmHg 96%
    01:00 +25°C° 0 mm 3 mps 758 mmHg 96%
    02:00 +25°C° 0 mm 3 mps 758 mmHg 96%
    03:00 +25°C° 0 mm 2 mps 758 mmHg 96%
    04:00 +25°C° 0 mm 2 mps 758 mmHg 96%
    05:00 +25°C° 0 mm 2 mps 758 mmHg 94%
    06:00 +26°C° 0 mm 2 mps 758 mmHg 92%
    07:00 +26°C° 0 mm 2 mps 759 mmHg 90%
    08:00 +28°C° 0 mm 2 mps 759 mmHg 78%
    09:00 +30°C° 0 mm 1 mps 759 mmHg 65%
    10:00 +31°C° 0 mm 1 mps 759 mmHg 52%
    11:00 +32°C° 0 mm 2 mps 758 mmHg 51%
    12:00 +32°C° 0 mm 2 mps 757 mmHg 49%
    13:00 +34°C° 0 mm 2 mps 757 mmHg 48%
    14:00 +32°C° 0 mm 2 mps 757 mmHg 55%
    15:00 +31°C° 0 mm 3 mps 756 mmHg 62%
    16:00 +30°C° 0 mm 3 mps 756 mmHg 70%
    17:00 +28°C° 0 mm 3 mps 757 mmHg 77%
    18:00 +27°C° 0 mm 2 mps 757 mmHg 85%
    19:00 +25°C° 0 mm 2 mps 757 mmHg 92%
    20:00 +25°C° 0.1 mm 2 mps 757 mmHg 92%
    21:00 +26°C° 0.1 mm 2 mps 757 mmHg 92%
    22:00 +26°C° 0.1 mm 2 mps 757 mmHg 93%
    23:00 +26°C° 0.1 mm 2 mps 757 mmHg 93%

    17 November, Sunday

    Time Temperature Precipitation Wind Pressure Humidity
    00:00 +26°C° 0.1 mm 1 mps 757 mmHg 93%
    01:00 +25°C° 0.1 mm 1 mps 756 mmHg 93%
    02:00 +25°C° 0.2 mm 1 mps 756 mmHg 94%
    03:00 +25°C° 0.2 mm 1 mps 756 mmHg 94%
    04:00 +25°C° 0.2 mm 1 mps 756 mmHg 95%
    05:00 +26°C° 0.2 mm 1 mps 757 mmHg 94%
    06:00 +26°C° 0.2 mm 1 mps 757 mmHg 93%
    07:00 +26°C° 0.2 mm 1 mps 758 mmHg 92%
    08:00 +28°C° 0 mm 1 mps 757 mmHg 85%
    09:00 +30°C° 0 mm 1 mps 757 mmHg 78%
    10:00 +31°C° 0 mm 1 mps 757 mmHg 71%
    11:00 +32°C° 0 mm 2 mps 757 mmHg 68%
    12:00 +32°C° 0 mm 2 mps 756 mmHg 66%
    13:00 +34°C° 0 mm 2 mps 756 mmHg 64%
    14:00 +31°C° 0 mm 2 mps 755 mmHg 70%
    15:00 +30°C° 0 mm 3 mps 755 mmHg 76%
    16:00 +29°C° 0 mm 3 mps 755 mmHg 82%
    17:00 +28°C° 0.2 mm 3 mps 756 mmHg 86%
    18:00 +27°C° 0.2 mm 2 mps 756 mmHg 90%
    19:00 +26°C° 0.2 mm 2 mps 756 mmHg 94%
    20:00 +26°C° 0.3 mm 2 mps 757 mmHg 94%
    21:00 +26°C° 0.3 mm 2 mps 757 mmHg 94%
    22:00 +26°C° 0.3 mm 2 mps 757 mmHg 95%
    23:00 +26°C° 0.2 mm 2 mps 757 mmHg 95%

    18 November, Monday

    Time Temperature Precipitation Wind Pressure Humidity
    00:00 +25°C° 0.2 mm 2 mps 757 mmHg 95%
    01:00 +25°C° 0.2 mm 2 mps 756 mmHg 95%
    02:00 +25°C° 0.1 mm 2 mps 756 mmHg 95%
    03:00 +25°C° 0.1 mm 2 mps 756 mmHg 95%
    04:00 +25°C° 0.1 mm 1 mps 756 mmHg 95%
    05:00 +25°C° 0.1 mm 1 mps 757 mmHg 93%
    06:00 +26°C° 0.1 mm 2 mps 757 mmHg 92%
    07:00 +26°C° 0.1 mm 2 mps 758 mmHg 91%
    08:00 +28°C° 0 mm 1 mps 758 mmHg 83%
    09:00 +30°C° 0 mm 1 mps 758 mmHg 76%
    10:00 +31°C° 0 mm 1 mps 758 mmHg 68%
    11:00 +32°C° 0 mm 2 mps 758 mmHg 66%
    12:00 +32°C° 0 mm 2 mps 757 mmHg 63%
    13:00 +34°C° 0 mm 2 mps 757 mmHg 61%
    14:00 +33°C° 0 mm 3 mps 756 mmHg 66%
    15:00 +31°C° 0 mm 3 mps 756 mmHg 72%
    16:00 +30°C° 0 mm 3 mps 756 mmHg 78%
    17:00 +29°C° 0.2 mm 3 mps 757 mmHg 84%
    18:00 +27°C° 0.2 mm 3 mps 757 mmHg 89%
    19:00 +26°C° 0.2 mm 3 mps 758 mmHg 94%
    20:00 +26°C° 0.1 mm 3 mps 758 mmHg 95%
    21:00 +26°C° 0.1 mm 3 mps 758 mmHg 95%
    22:00 +26°C° 0.1 mm 3 mps 758 mmHg 95%
    23:00 +26°C° 0 mm 3 mps 758 mmHg 95%
    Show more